�������r�C�����j�^�v���󋵏��
Date,Time,5�C6���@���p�r�C��,����,����(m/s)
2021/12/27,00:00,4.1,��,6.5
2021/12/27,00:10,4.2,��,5.8
2021/12/27,00:20,3.9,���k��,5.8
2021/12/27,00:30,3.9,���k��,6.3
2021/12/27,00:40,3.8,���k��,6.3
2021/12/27,00:50,4.0,�k��,6.1
2021/12/27,01:00,4.1,���k��,6.8
2021/12/27,01:10,4.2,���k��,7.7
2021/12/27,01:20,4.1,���k��,6.0
2021/12/27,01:30,3.9,���k��,5.4
2021/12/27,01:40,4.1,��,6.7
2021/12/27,01:50,4.0,���쐼,5.3
2021/12/27,02:00,3.9,��,7.0
2021/12/27,02:10,4.1,��,5.0
2021/12/27,02:20,4.0,��,6.2
2021/12/27,02:30,4.3,��,5.8
2021/12/27,02:40,3.9,��,5.9
2021/12/27,02:50,3.9,��,5.3
2021/12/27,03:00,3.9,��,5.1
2021/12/27,03:10,4.0,��,4.8
2021/12/27,03:20,4.0,��,2.9
2021/12/27,03:30,4.0,���k��,4.3
2021/12/27,03:40,4.1,���k��,3.3
2021/12/27,03:50,3.9,��,3.5
2021/12/27,04:00,4.0,��,4.4
2021/12/27,04:10,4.1,��,4.0
2021/12/27,04:20,4.2,���쐼,4.5
2021/12/27,04:30,4.1,���쐼,4.0
2021/12/27,04:40,4.0,�쐼,3.0
2021/12/27,04:50,4.0,�쐼,2.8
2021/12/27,05:00,4.2,�쐼,3.2
2021/12/27,05:10,4.1,�쐼,4.7
2021/12/27,05:20,4.0,���쐼,5.1
2021/12/27,05:30,4.0,��,3.4
2021/12/27,05:40,4.0,���쐼,2.5
2021/12/27,05:50,4.1,�쐼,3.8
2021/12/27,06:00,4.1,�쐼,4.8
2021/12/27,06:10,4.1,��쐼,4.9
2021/12/27,06:20,4.0,��쐼,4.3
2021/12/27,06:30,4.1,��쐼,2.9
2021/12/27,06:40,4.0,�쐼,4.4
2021/12/27,06:50,4.1,�쐼,4.1
2021/12/27,07:00,4.1,��쐼,3.5
2021/12/27,07:10,4.0,�쐼,2.6
2021/12/27,07:20,4.2,���쐼,1.7
2021/12/27,07:30,4.2,���쐼,1.5
2021/12/27,07:40,4.1,���쐼,1.7
2021/12/27,07:50,4.1,���쐼,0.9
2021/12/27,08:00,4.1,���쐼,1.4
2021/12/27,08:10,4.1,�쐼,1.7
2021/12/27,08:20,3.9,�쐼,2.3
2021/12/27,08:30,3.9,��,2.3
2021/12/27,08:40,4.1,��,1.7
2021/12/27,08:50,4.0,��쓌,2.0
2021/12/27,09:00,4.2,��쓌,1.7
2021/12/27,09:10,4.0,��,0.9
2021/12/27,09:20,3.9,�쓌,1.7
2021/12/27,09:30,4.1,���k��,1.1
2021/12/27,09:40,4.0,�쐼,0.6
2021/12/27,09:50,4.0,��,4.9
2021/12/27,10:00,4.2,��,4.5
2021/12/27,10:10,4.1,��,7.4
2021/12/27,10:20,4.2,��,6.4
2021/12/27,10:30,4.3,��,6.5
2021/12/27,10:40,4.1,��,7.1
2021/12/27,10:50,4.0,��,8.0
2021/12/27,11:00,4.0,��,7.8
2021/12/27,11:10,4.4,��,8.7
2021/12/27,11:20,3.9,��,8.8
2021/12/27,11:30,4.2,��,7.3
2021/12/27,11:40,4.0,��,7.5
2021/12/27,11:50,3.9,���쐼,8.8
2021/12/27,12:00,4.0,��,8.9
2021/12/27,12:10,4.0,��,8.3
2021/12/27,12:20,4.3,��,7.4
2021/12/27,12:30,4.2,��,9.0
2021/12/27,12:40,4.1,��,9.2
2021/12/27,12:50,4.2,��,7.8
2021/12/27,13:00,4.0,���쐼,6.9
2021/12/27,13:10,4.0,���쐼,9.6
2021/12/27,13:20,4.2,���쐼,8.4
2021/12/27,13:30,4.3,��,5.8
2021/12/27,13:40,4.0,���k��,6.1
2021/12/27,13:50,4.2,�k,7.4
2021/12/27,14:00,4.1,�k�k��,5.3
2021/12/27,14:10,4.1,�k�k��,5.3
2021/12/27,14:20,4.3,�k�k��,4.5
2021/12/27,14:30,4.0,�k�k��,4.8
2021/12/27,14:40,4.0,�k�k��,5.1
2021/12/27,14:50,4.1,�k�k��,5.1
2021/12/27,15:00,4.0,�k�k��,5.0
2021/12/27,15:10,4.1,�k��,4.3
2021/12/27,15:20,4.2,���k��,3.6
2021/12/27,15:30,4.1,���쐼,2.3
2021/12/27,15:40,4.1,���쐼,2.6
2021/12/27,15:50,4.1,��,5.7
2021/12/27,16:00,4.0,��,6.3
2021/12/27,16:10,4.1,���쐼,6.8
2021/12/27,16:20,4.1,��,6.4
2021/12/27,16:30,4.0,��,6.1
2021/12/27,16:40,4.0,��,4.8
2021/12/27,16:50,4.1,��,7.0
2021/12/27,17:00,4.1,��,5.2
2021/12/27,17:10,4.0,��,5.2
2021/12/27,17:20,3.8,��,5.2
2021/12/27,17:30,4.0,��,4.1
2021/12/27,17:40,4.0,���쐼,5.0
2021/12/27,17:50,4.1,��,4.4
2021/12/27,18:00,4.1,��,4.3
2021/12/27,18:10,4.0,��,4.0
2021/12/27,18:20,4.1,��,2.9
2021/12/27,18:30,4.1,��,3.2
2021/12/27,18:40,4.2,��,3.6
2021/12/27,18:50,4.1,���쐼,4.0
2021/12/27,19:00,4.0,���쐼,3.2
2021/12/27,19:10,4.2,���쐼,1.5
2021/12/27,19:20,4.0,���쐼,1.4
2021/12/27,19:30,4.2,���쐼,1.9
2021/12/27,19:40,4.1,�쐼,2.3
2021/12/27,19:50,4.0,�쐼,2.6
2021/12/27,20:00,4.1,�쐼,4.3
2021/12/27,20:10,4.0,�쐼,5.3
2021/12/27,20:20,3.9,�쐼,5.7
2021/12/27,20:30,4.0,�쐼,6.4
2021/12/27,20:40,4.0,�쐼,6.6
2021/12/27,20:50,4.1,���쐼,5.1
2021/12/27,21:00,4.2,���쐼,3.0
2021/12/27,21:10,4.1,��,2.6
2021/12/27,21:20,4.1,��,3.1
2021/12/27,21:30,4.0,��,5.0
2021/12/27,21:40,4.2,��,3.9
2021/12/27,21:50,4.1,��,4.0
2021/12/27,22:00,4.2,��,4.0
2021/12/27,22:10,3.9,���쐼,3.9
2021/12/27,22:20,4.2,��,4.5
2021/12/27,22:30,4.1,��,4.9
2021/12/27,22:40,4.2,��,4.2
2021/12/27,22:50,4.1,��,4.8
2021/12/27,23:00,4.1,��,4.4
2021/12/27,23:10,3.9,���k��,4.7
2021/12/27,23:20,4.1,��,4.2
2021/12/27,23:30,4.2,���k��,5.5
2021/12/27,23:40,4.1,���k��,4.8
2021/12/27,23:50,4.0,��,4.6
